Location: Audinghen
(50.8518°N, 1.6129°E)
Time: 04:07:15
(UTC+00:00)

Meteor 1-16 Rocket - Pass Details

Date: 07 August 2020
Orbit: 791 x 906 km, 81.2° (Epoch: 19 September)

Event Time Altitude Azimuth Distance (km) Brightness Sun altitude
Rises 03:38:31 0° 188° (S) 3,292 6.8 -7.6°
Reaches altitude 10° 03:40:51 10° 188° (S) 2,375 6.1 -7.3°
Maximum altitude 03:46:13 84° 102° (ESE) 828 4.3 -6.6°
Drops below altitude 10° 03:51:47 10° 14° (NNE) 2,458 7.4 -5.9°
Sets 03:54:14 0° 14° (NNE) 3,415 8.2 -5.6°
